Análise da corrida

 :: S48

Ver o tópico anterior Ver o tópico seguinte Ir em baixo

Análise da corrida

Mensagem por Gabriel Miranda em Sex Jul 03, 2015 9:44 pm

Silverstone (United Kingdom), Época 48


Volta Tempo volta Pos Pneus Tempo Temp (°) Hum (%) Ocorrências
0 - 2 Duros Parcial/nublado 41 91 -
1 1:33.299 2 Duros Parcial/nublado 41 91 -
2 1:28.315 2 Duros Parcial/nublado 41 91 -
3 1:28.980 2 Duros Parcial/nublado 41 91 -
4 1:28.406 2 Duros Parcial/nublado 41 91 -
5 1:28.704 2 Duros Parcial/nublado 41 91 -
6 1:28.247 2 Duros Parcial/nublado 41 91 -
7 1:28.328 2 Duros Parcial/nublado 41 91 -
8 1:28.463 2 Duros Parcial/nublado 41 91 -
9 1:28.449 2 Duros Parcial/nublado 41 91 -
10 1:28.324 2 Duros Parcial/nublado 41 91 -
11 1:28.087 2 Duros Parcial/nublado 41 91 -
12 1:27.886 2 Duros Parcial/nublado 41 90 -
13 1:28.412 2 Duros Parcial/nublado 41 90 -
14 1:37.744 6 Duros Parcial/nublado 41 90 Pit
15 2:05.759 21 Duros Parcial/nublado 41 90 -
16 1:28.248 20 Duros Parcial/nublado 41 90 -
17 1:28.694 17 Duros Parcial/nublado 41 90 -
18 1:27.488 16 Duros Parcial/nublado 41 90 -
19 1:27.813 16 Duros Parcial/nublado 41 90 -
20 1:27.486 15 Duros Parcial/nublado 41 90 -
21 1:27.429 12 Duros Parcial/nublado 42 90 -
22 1:27.493 10 Duros Parcial/nublado 43 90 -
23 1:28.042 7 Duros Parcial/nublado 43 90 -
24 1:28.101 6 Duros Parcial/nublado 43 90 -
25 1:27.657 5 Duros Parcial/nublado 44 90 -
26 1:30.937 6 Duros Parcial/nublado 45 90 Erro do Piloto
27 1:27.472 5 Duros Parcial/nublado 45 90 -
28 1:27.211 5 Duros Parcial/nublado 45 89 -
29 1:27.210 5 Duros Parcial/nublado 45 89 -
30 1:38.267 7 Duros Parcial/nublado 45 88 Pit
31 2:02.272 10 Duros Parcial/nublado 45 88 -
32 1:27.817 9 Duros Parcial/nublado 45 88 -
33 1:27.432 7 Duros Parcial/nublado 45 88 -
34 1:27.467 7 Duros Parcial/nublado 45 88 -
35 1:27.294 7 Duros Sol 45 88 -
36 1:27.603 7 Duros Sol 45 88 -
37 1:27.324 7 Duros Sol 45 88 -
38 1:27.311 7 Duros Sol 45 88 -
39 1:27.165 7 Duros Sol 45 88 -
40 1:27.198 7 Duros Sol 45 87 -
41 1:27.300 7 Duros Sol 45 86 -
42 1:27.025 7 Duros Sol 45 85 -
43 1:27.696 6 Duros Sol 45 85 -
44 1:37.953 5 Duros Sol 45 85 Pit
45 2:03.897 8 Duros Sol 45 85 -
46 1:27.528 8 Duros Sol 44 85 -
47 1:27.479 8 Duros Sol 43 85 -
48 1:27.290 8 Duros Sol 42 85 -
49 1:27.178 8 Duros Sol 42 85 -
50 1:27.191 8 Duros Sol 42 85 -
51 1:27.334 8 Duros Sol 42 85 -
52 1:27.534 7 Duros Sol 42 85 -
53 1:27.231 7 Duros Sol 42 85 -
54 1:27.130 7 Duros Sol 42 85 -
55 1:26.711 7 Duros Sol 42 85 -
56 1:26.735 7 Duros Sol 41 85 -
57 1:26.813 7 Duros Sol 41 85 -
58 1:37.776 7 Duros Sol 41 85 Pit
59 2:03.005 9 Duros Sol 41 85 -
60 1:27.315 9 Duros Sol 41 85 -


Riscos usados:
Ultrapassagem Defesa Pista Livre e Seca Pista Livre e Chuva Avaria
20 20 100 100 100

Afinação usada:
Asa Dianteira Asa Traseira Motor Travões Caixa Suspensão
427 577 793 737 592 363

Cha Mot ADiant ATras Carroç Later Refrig Caixa Trav Susp Elec
Nível das peças: 5 5 5 5 5 5 5 5 5 4 5
Desgaste das Peças (no início) (%): 58 0 48 51 59 52 40 0 67 70 34
Desgaste das Peças (no final) (%): 80 45 68 74 84 67 55 32 91 91 45

Combustível inicíal (litros): 52

Pit Razão da paragem Estado pneus (%) Combust. restante (%) Reabast. até (litros) Tempo da paragem (seg)
Paragem 1 (Volta 14): Não havia mais combustível 52 0 61 litros 26.022
Paragem 2 (Volta 30): Não havia mais combustível 45 1 52 litros 23.121
Paragem 3 (Volta 44): Não havia mais combustível 51 0 52 litros 24.494
Paragem 4 (Volta 58): Não havia mais combustível 52 0 52 litros 23.571

Estado dos pneus após o final (%): 94

Combustível restante no final (litros): 44

Estou DANADO comigo mesmo!
Não vi que a tool trazia assinalado o "sim" na chuva.
Resultado... em vez de um podium nem sequer um pontinho.
Anda burro que é para aprenderes!
avatar
Gabriel Miranda

Mensagens : 913
Data de inscrição : 29/12/2014
Idade : 44

Ver perfil do usuário

Voltar ao Topo Ir em baixo

Re: Análise da corrida

Mensagem por alexxxIF em Sex Jul 03, 2015 10:09 pm

Gabriel Miranda escreveu:

Estou DANADO comigo mesmo!
Não vi que a tool trazia assinalado o "sim" na chuva.
Resultado... em vez de um podium nem sequer um pontinho.
Anda burro que é para aprenderes!

Calma Miranda não foste o unico, mais corridas virão sem stress
avatar
alexxxIF

Mensagens : 437
Data de inscrição : 24/09/2014

Ver perfil do usuário

Voltar ao Topo Ir em baixo

Re: Análise da corrida

Mensagem por Paulo Coutinho em Sex Jul 03, 2015 10:22 pm

Silverstone (United Kingdom), Season 48


Lap Lap time Pos Tyres Weather Temp (°) Hum (%) Events
0 - 28 Hard Partially Cloudy 41 91 -
1 1:42.870 25 Hard Partially Cloudy 41 91 -
2 1:29.267 24 Hard Partially Cloudy 41 91 -
3 1:29.062 23 Hard Partially Cloudy 41 91 -
4 1:28.738 23 Hard Partially Cloudy 41 91 -
5 1:29.087 23 Hard Partially Cloudy 41 91 -
6 1:29.014 23 Hard Partially Cloudy 41 91 -
7 1:29.115 23 Hard Partially Cloudy 41 91 -
8 1:28.605 23 Hard Partially Cloudy 41 91 -
9 1:28.923 23 Hard Partially Cloudy 41 91 -
10 1:28.442 23 Hard Partially Cloudy 41 91 -
11 1:29.028 22 Hard Partially Cloudy 41 91 -
12 1:28.754 22 Hard Partially Cloudy 41 90 -
13 1:28.532 22 Hard Partially Cloudy 41 90 -
14 1:28.503 22 Hard Partially Cloudy 41 90 -
15 1:28.591 22 Hard Partially Cloudy 41 90 -
16 1:28.826 22 Hard Partially Cloudy 41 90 -
17 1:35.548 24 Hard Partially Cloudy 41 90 Driver mistake
18 1:28.150 24 Hard Partially Cloudy 41 90 -
19 1:27.910 24 Hard Partially Cloudy 41 90 -
20 1:28.100 24 Hard Partially Cloudy 41 90 -
21 1:28.095 21 Hard Partially Cloudy 42 90 -
22 1:28.101 21 Hard Partially Cloudy 43 90 -
23 1:27.864 21 Hard Partially Cloudy 43 90 -
24 1:28.012 21 Hard Partially Cloudy 43 90 -
25 1:27.795 21 Hard Partially Cloudy 44 90 -
26 1:27.718 21 Hard Partially Cloudy 45 90 -
27 1:27.580 21 Hard Partially Cloudy 45 90 -
28 1:27.777 21 Hard Partially Cloudy 45 89 -
29 1:27.681 21 Hard Partially Cloudy 45 89 -
30 1:27.641 21 Hard Partially Cloudy 45 88 -
31 1:38.793 19 Hard Partially Cloudy 45 88 Pit
32 2:03.698 24 Hard Partially Cloudy 45 88 -
33 1:29.116 24 Hard Partially Cloudy 45 88 -
34 1:28.762 24 Hard Partially Cloudy 45 88 -
35 1:28.676 24 Hard Sunny 45 88 -
36 1:28.642 24 Hard Sunny 45 88 -
37 1:28.445 24 Hard Sunny 45 88 -
38 1:29.084 23 Hard Sunny 45 88 -
39 1:28.606 23 Hard Sunny 45 88 -
40 1:28.285 23 Hard Sunny 45 87 -
41 1:28.236 22 Hard Sunny 45 86 -
42 1:27.958 22 Hard Sunny 45 85 -
43 1:27.944 22 Hard Sunny 45 85 -
44 1:28.077 21 Hard Sunny 45 85 -
45 1:28.254 21 Hard Sunny 45 85 -
46 1:27.603 21 Hard Sunny 44 85 -
47 1:27.688 21 Hard Sunny 43 85 -
48 1:28.188 21 Hard Sunny 42 85 -
49 1:27.368 21 Hard Sunny 42 85 -
50 1:27.905 21 Hard Sunny 42 85 -
51 1:27.618 21 Hard Sunny 42 85 -
52 1:27.600 21 Hard Sunny 42 85 -
53 1:27.437 21 Hard Sunny 42 85 -
54 1:27.309 21 Hard Sunny 42 85 -
55 1:27.053 21 Hard Sunny 42 85 -
56 1:27.452 21 Hard Sunny 41 85 -
57 1:26.833 21 Hard Sunny 41 85 -
58 1:27.550 21 Hard Sunny 41 85 -
59 1:27.946 21 Hard Sunny 41 85 -
60 1:27.211 20 Hard Sunny 41 85 -


Risks used:
Overtake Defend Clear & dry Clear & wet Malfunct
50 20 70 0 70

Setup used:
Front wing Rear wing Engine Brakes Gear Suspension
351 485 825 627 721 442

Cha Eng FWing RWing Underb Sidep Cool Gear Bra Susp Elec
Car parts level: 6 5 6 6 7 7 7 4 7 6 6
Car parts wear (at the start) (%): 59 68 52 53 64 65 39 67 74 74 30
Car parts wear (at the finish) (%): 75 99 66 70 83 75 49 95 92 88 37

Start fuel (liters): 112

Pit Pitstop reason Tyres condition (%) Fuel left (%) Refilled to (liters) Pit time (sec)
Stop 1 (Lap 31): No more fuel was left 19 1 112 liters 23.176

Tyres condition after finish (%): 24

Fuel left in the car after finish (liters): 8

Calma pessoal, a época ainda agora começou. Shocked

_________________
Paulo Coutinho
avatar
Paulo Coutinho

Mensagens : 1715
Data de inscrição : 31/03/2015
Idade : 44

Ver perfil do usuário

Voltar ao Topo Ir em baixo

Re: Análise da corrida

Mensagem por José Serrano em Dom Jul 05, 2015 12:48 am

alexxxIF escreveu:
Gabriel Miranda escreveu:

Estou DANADO comigo mesmo!
Não vi que a tool trazia assinalado o "sim" na chuva.
Resultado... em vez de um podium nem sequer um pontinho.
Anda burro que é para aprenderes!

Calma Miranda não foste o unico, mais corridas virão sem stress


O Frade faz isso para ver se estão atentos...
:-P
avatar
José Serrano

Mensagens : 984
Data de inscrição : 22/09/2014

Ver perfil do usuário

Voltar ao Topo Ir em baixo

Re: Análise da corrida

Mensagem por hugueta em Seg Jul 06, 2015 9:48 pm

Race analysis: Silverstone (United Kingdom) - Season 48 - Race 3

Practice laps data
Lap Lap time Driver mistake Net time Settings
FWing RWing Engine Brakes Gear Susp Tyres Comm
1 1:29.088s 0.460s 1:28.628s 389 489 878 642 678 517 Hard
Practice lap 1 comments from your driver:

I am satisfied with the setup of the car


Car wear & lap information
Car parts level
Cha Eng FWing RWing Underb Sidep Cool Gear Bra Susp Elec
6 5 6 5 5 6 6 5 6 6 6
Car parts wear (at the start)
43% 51% 30% 36% 45% 37% 24% 59% 48% 64% 21%
Car parts wear (at the finish)
58% 87% 44% 53% 63% 47% 34% 84% 65% 78% 27%
Lap Lap time Pos Tyres Weather Temp Hum Events
0 - 30 Hard Partially Cloudy 41° 91% -
1 1:46.201 34 Hard Partially Cloudy 41° 91% -
2 1:30.999 36 Hard Partially Cloudy 41° 91% -
3 1:31.333 37 Hard Partially Cloudy 41° 91% -
4 1:29.746 36 Hard Partially Cloudy 41° 91% -
5 1:29.977 36 Hard Partially Cloudy 41° 91% -
6 1:29.657 36 Hard Partially Cloudy 41° 91% -
7 1:30.271 36 Hard Partially Cloudy 41° 91% -
8 1:30.634 36 Hard Partially Cloudy 41° 91% -
9 1:30.865 36 Hard Partially Cloudy 41° 91% -
10 1:30.034 35 Hard Partially Cloudy 41° 91% -
11 1:29.558 30 Hard Partially Cloudy 41° 91% -
12 1:28.505 30 Hard Partially Cloudy 41° 90% -
13 1:28.624 30 Hard Partially Cloudy 41° 90% -
14 1:28.729 30 Hard Partially Cloudy 41° 90% -
15 1:30.151 29 Hard Partially Cloudy 41° 90% -
16 1:29.788 29 Hard Partially Cloudy 41° 90% -
17 1:29.251 28 Hard Partially Cloudy 41° 90% -
18 1:29.680 27 Hard Partially Cloudy 41° 90% -
19 1:29.379 26 Hard Partially Cloudy 41° 90% -
20 1:30.182 26 Hard Partially Cloudy 41° 90% -
21 1:28.315 23 Hard Partially Cloudy 42° 90% -
22 1:39.432 29 Hard Partially Cloudy 43° 90% Pit
23 2:23.100 39 Hard Partially Cloudy 43° 90% Driver mistake
24 1:30.499 39 Hard Partially Cloudy 43° 90% -
25 1:30.476 39 Hard Partially Cloudy 44° 90% -
26 1:30.242 39 Hard Partially Cloudy 45° 90% -
27 1:30.541 39 Hard Partially Cloudy 45° 90% -
28 1:30.086 39 Hard Partially Cloudy 45° 89% -
29 1:29.922 39 Hard Partially Cloudy 45° 89% -
30 1:29.866 39 Hard Partially Cloudy 45° 88% -
31 1:29.482 38 Hard Partially Cloudy 45° 88% -
32 1:30.658 37 Hard Partially Cloudy 45° 88% -
33 1:31.092 33 Hard Partially Cloudy 45° 88% -
34 1:31.242 33 Hard Partially Cloudy 45° 88% -
35 1:31.247 33 Hard Sunny 45° 88% -
36 1:30.721 33 Hard Sunny 45° 88% -
37 1:31.081 33 Hard Sunny 45° 88% -
38 1:30.372 33 Hard Sunny 45° 88% -
39 1:30.571 33 Hard Sunny 45° 88% -
40 1:30.999 33 Hard Sunny 45° 87% -
41 1:30.542 32 Hard Sunny 45° 86% -
42 1:30.785 32 Hard Sunny 45° 85% -
43 1:30.983 31 Hard Sunny 45° 85% -
44 1:30.705 31 Hard Sunny 45° 85% -
45 1:30.029 31 Hard Sunny 45° 85% -
46 1:30.392 31 Hard Sunny 44° 85% -
47 1:30.288 31 Hard Sunny 43° 85% -
48 1:29.908 31 Hard Sunny 42° 85% -
49 1:30.517 31 Hard Sunny 42° 85% -
50 1:29.572 31 Hard Sunny 42° 85% -
51 1:34.176 33 Hard Sunny 42° 85% Driver mistake
52 1:28.905 33 Hard Sunny 42° 85% -
53 1:28.550 33 Hard Sunny 42° 85% -
54 1:29.101 32 Hard Sunny 42° 85% -
55 1:29.306 29 Hard Sunny 42° 85% -
56 1:28.719 29 Hard Sunny 41° 85% -
57 1:29.250 29 Hard Sunny 41° 85% -
58 1:29.573 29 Hard Sunny 41° 85% -
59 1:29.833 29 Hard Sunny 41° 85% -
60 1:30.868 29 Hard Sunny 41° 85% -

Download race analysis as Excel sheet

Race information
Lap times
Qualification 1 Qualification 2
1:28.826s 1:29.603s

Setups used
Session FWing RWing Eng Bra Gear Susp Tyres
Q1 374 504 878 642 678 517 Hard
Q2 406 506 863 666 662 493 Hard
Race 415 515 844 679 654 481 Hard

Risks used
Starting risk
Avoid trouble
Overtake Defend Clear & dry Clear & wet Malfunct
31 12 50 0 0

Driver attributes
Driver name OA Con Tal Agr Exp TeI Sta Cha Mot Rep Wei Age
Hector Welter 137 183 193 10 168 174 137 80 0 0 71 34

Positions
Start Finish
30 29
Overall car character
Power Handling Acceleration
74 79 74

Tyre supplier
Dunnolop Dunnolop
Peak temperature:
19°
Dry performance:

Wet performance:

Durability:

Warmup distance:


Sessions weather
Practice / Qualify 1 Qualify 2 / Race start
Cloudy
Temp: 37°C
Humidity: 97% Partially cloudy
Temp: 41°C
Humidity: 91%
Race forecast
Start - 0h30m 0h30m - 1h
Temp: 41° - 44°
Humidity: 90% - 98%
Rain probability: 0% Temp: 41° - 45°
Humidity: 87% - 97%
Rain probability: 0%
1h - 1h30m 1h30m - 2h
Temp: 41° - 44°
Humidity: 85% - 95%
Rain probability: 0% Temp: 43° - 47°
Humidity: 84% - 94%
Rain probability: 0%


Start fuel: 78 liters

Pit Pitstop reason Tyres condition
Fuel left Refilled to Pit time
Stop 1
(Lap 22) No more fuel was left 48% 0% 150 liters 33.787s

Tyres condition after finish: 7%

Fuel left in the car after finish: 15 liters

hugueta

Mensagens : 486
Data de inscrição : 30/09/2014
Idade : 40
Localização : Lx

Ver perfil do usuário

Voltar ao Topo Ir em baixo

Re: Análise da corrida

Mensagem por Conteúdo patrocinado


Conteúdo patrocinado


Voltar ao Topo Ir em baixo

Ver o tópico anterior Ver o tópico seguinte Voltar ao Topo

- Tópicos similares

 :: S48

 
Permissão deste fórum:
Você não pode responder aos tópicos neste fórum